Time,TemperatureF,DewpointF,PressureIn,WindDirection,WindDirectionDegrees,WindSpeedMPH,WindSpeedGustMPH,Humidity,HourlyPrecipIn,Conditions,Clouds,dailyrainin,SoftwareType,DateUTC
2013-04-26 00:11:00,48.3,46.0,30.29,SE,130,0.0,0.0,90,0.00,,,0.00,weatherlink.com 1.10,2013-04-26 04:11:00,
2013-04-26 00:26:00,48.5,46.0,30.29,SE,130,0.0,0.0,90,0.00,,,0.00,weatherlink.com 1.10,2013-04-26 04:26:00,
2013-04-26 00:41:00,48.5,45.0,30.30,SE,130,0.0,0.0,88,0.00,,,0.00,weatherlink.com 1.10,2013-04-26 04:41:00,
2013-04-26 00:56:00,48.5,45.0,30.30,SE,130,0.0,0.0,87,0.00,,,0.00,weatherlink.com 1.10,2013-04-26 04:56:00,
2013-04-26 01:11:00,48.3,44.0,30.30,SE,130,0.0,0.0,86,0.00,,,0.00,weatherlink.com 1.10,2013-04-26 05:11:00,
2013-04-26 01:26:00,48.5,44.0,30.30,NNW,333,0.0,2.0,84,0.00,,,0.00,weatherlink.com 1.10,2013-04-26 05:26:00,
2013-04-26 01:41:00,49.9,43.0,30.31,NNW,329,0.0,4.0,78,0.00,,,0.00,weatherlink.com 1.10,2013-04-26 05:41:00,
2013-04-26 01:56:00,50.3,42.0,30.30,NNW,331,0.0,2.0,74,0.00,,,0.00,weatherlink.com 1.10,2013-04-26 05:56:00,
2013-04-26 02:11:00,50.1,41.0,30.30,NNW,331,0.0,0.0,72,0.00,,,0.00,weatherlink.com 1.10,2013-04-26 06:11:00,
2013-04-26 02:26:00,49.8,42.0,30.30,NNW,331,0.0,0.0,74,0.00,,,0.00,weatherlink.com 1.10,2013-04-26 06:26:00,
2013-04-26 02:41:00,49.2,43.0,30.30,NNW,331,0.0,0.0,78,0.00,,,0.00,weatherlink.com 1.10,2013-04-26 06:41:00,
2013-04-26 02:56:00,48.2,42.0,30.30,NNW,331,0.0,0.0,79,0.00,,,0.00,weatherlink.com 1.10,2013-04-26 06:56:00,
2013-04-26 03:11:00,47.4,42.0,30.30,NNW,331,0.0,0.0,82,0.00,,,0.00,weatherlink.com 1.10,2013-04-26 07:11:00,
2013-04-26 03:26:00,46.6,42.0,30.30,NNW,331,0.0,0.0,83,0.00,,,0.00,weatherlink.com 1.10,2013-04-26 07:26:00,
2013-04-26 03:41:00,45.8,41.0,30.31,NNW,331,0.0,0.0,84,0.00,,,0.00,weatherlink.com 1.10,2013-04-26 07:41:00,
2013-04-26 03:56:00,45.7,42.0,30.31,NNW,331,0.0,3.0,85,0.00,,,0.00,weatherlink.com 1.10,2013-04-26 07:56:00,
2013-04-26 04:11:00,45.2,41.0,30.32,NNW,331,0.0,0.0,86,0.00,,,0.00,weatherlink.com 1.10,2013-04-26 08:11:00,
2013-04-26 04:26:00,45.1,41.0,30.32,NNW,331,0.0,0.0,86,0.00,,,0.00,weatherlink.com 1.10,2013-04-26 08:26:00,
2013-04-26 04:41:00,44.9,41.0,30.33,NNW,331,0.0,0.0,87,0.00,,,0.00,weatherlink.com 1.10,2013-04-26 08:41:00,
2013-04-26 04:56:00,44.5,41.0,30.33,NNW,331,0.0,0.0,87,0.00,,,0.00,weatherlink.com 1.10,2013-04-26 08:56:00,
2013-04-26 05:11:00,44.5,41.0,30.34,NNW,331,0.0,0.0,87,0.00,,,0.00,weatherlink.com 1.10,2013-04-26 09:11:00,
2013-04-26 05:26:00,44.0,41.0,30.34,NNW,331,0.0,0.0,88,0.00,,,0.00,weatherlink.com 1.10,2013-04-26 09:26:00,
2013-04-26 05:41:00,43.8,41.0,30.35,NNW,331,0.0,0.0,88,0.00,,,0.00,weatherlink.com 1.10,2013-04-26 09:41:00,
2013-04-26 05:56:00,43.3,41.0,30.36,NNW,331,0.0,0.0,90,0.00,,,0.00,weatherlink.com 1.10,2013-04-26 09:56:00,
2013-04-26 06:11:00,43.2,41.0,30.37,NNW,331,0.0,0.0,90,0.00,,,0.00,weatherlink.com 1.10,2013-04-26 10:11:00,
2013-04-26 06:26:00,43.3,41.0,30.37,NNW,331,0.0,0.0,91,0.00,,,0.00,weatherlink.com 1.10,2013-04-26 10:26:00,
2013-04-26 06:41:00,44.1,42.0,30.38,West,277,0.0,1.0,92,0.00,,,0.00,weatherlink.com 1.10,2013-04-26 10:41:00,
2013-04-26 06:56:00,46.4,42.0,30.39,West,277,1.0,2.0,84,0.00,,,0.00,weatherlink.com 1.10,2013-04-26 10:56:00,
2013-04-26 07:11:00,48.8,42.0,30.39,West,277,0.0,3.0,76,0.00,,,0.00,weatherlink.com 1.10,2013-04-26 11:11:00,
2013-04-26 07:27:00,50.3,41.0,30.40,NW,321,1.0,3.0,70,0.00,,,0.00,weatherlink.com 1.10,2013-04-26 11:27:00,
2013-04-26 07:42:00,51.0,42.0,30.40,NW,321,1.0,2.0,70,0.00,,,0.00,weatherlink.com 1.10,2013-04-26 11:42:00,
2013-04-26 07:57:00,51.6,40.0,30.41,NW,311,2.0,3.0,66,0.00,,,0.00,weatherlink.com 1.10,2013-04-26 11:57:00,
2013-04-26 08:12:00,52.4,41.0,30.41,WNW,296,1.0,4.0,65,0.00,,,0.00,weatherlink.com 1.10,2013-04-26 12:12:00,
2013-04-26 08:27:00,53.3,41.0,30.41,North,355,2.0,2.0,63,0.00,,,0.00,weatherlink.com 1.10,2013-04-26 12:27:00,
2013-04-26 08:42:00,53.9,40.0,30.42,NNW,345,1.0,5.0,60,0.00,,,0.00,weatherlink.com 1.10,2013-04-26 12:42:00,
2013-04-26 08:57:00,54.3,41.0,30.42,NW,318,1.0,3.0,62,0.00,,,0.00,weatherlink.com 1.10,2013-04-26 12:57:00,
2013-04-26 09:12:00,54.9,42.0,30.43,NW,317,1.0,4.0,62,0.00,,,0.00,weatherlink.com 1.10,2013-04-26 13:12:00,
2013-04-26 09:27:00,55.8,43.0,30.43,NW,315,2.0,4.0,63,0.00,,,0.00,weatherlink.com 1.10,2013-04-26 13:27:00,
2013-04-26 09:42:00,56.0,41.0,30.43,North,5,1.0,5.0,58,0.00,,,0.00,weatherlink.com 1.10,2013-04-26 13:42:00,
2013-04-26 09:57:00,56.7,43.0,30.43,NW,317,1.0,4.0,60,0.00,,,0.00,weatherlink.com 1.10,2013-04-26 13:57:00,
2013-04-26 10:12:00,57.2,43.0,30.43,WNW,287,1.0,3.0,59,0.00,,,0.00,weatherlink.com 1.10,2013-04-26 14:12:00,
2013-04-26 10:27:00,58.0,42.0,30.44,WNW,289,0.0,4.0,55,0.00,,,0.00,weatherlink.com 1.10,2013-04-26 14:27:00,
2013-04-26 10:42:00,58.8,42.0,30.44,NNW,334,3.0,4.0,54,0.00,,,0.00,weatherlink.com 1.10,2013-04-26 14:42:00,
2013-04-26 10:57:00,58.7,41.0,30.44,NW,316,0.0,4.0,53,0.00,,,0.00,weatherlink.com 1.10,2013-04-26 14:57:00,
2013-04-26 11:12:00,59.1,41.0,30.44,NW,326,1.0,4.0,51,0.00,,,0.00,weatherlink.com 1.10,2013-04-26 15:12:00,
2013-04-26 11:27:00,60.0,38.0,30.44,WNW,293,0.0,5.0,44,0.00,,,0.00,weatherlink.com 1.10,2013-04-26 15:27:00,
2013-04-26 11:42:00,60.7,35.0,30.44,NW,319,1.0,4.0,38,0.00,,,0.00,weatherlink.com 1.10,2013-04-26 15:42:00,
2013-04-26 11:57:00,61.6,36.0,30.44,North,355,1.0,3.0,39,0.00,,,0.00,weatherlink.com 1.10,2013-04-26 15:57:00,
2013-04-26 12:12:00,61.3,36.0,30.43,NW,317,4.0,4.0,39,0.00,,,0.00,weatherlink.com 1.10,2013-04-26 16:12:00,
2013-04-26 12:27:00,62.0,39.0,30.43,WNW,294,4.0,4.0,43,0.00,,,0.00,weatherlink.com 1.10,2013-04-26 16:27:00,
2013-04-26 12:42:00,62.2,39.0,30.42,NW,317,1.0,3.0,43,0.00,,,0.00,weatherlink.com 1.10,2013-04-26 16:42:00,
2013-04-26 12:57:00,62.5,38.0,30.41,WNW,294,0.0,3.0,41,0.00,,,0.00,weatherlink.com 1.10,2013-04-26 16:57:00,
2013-04-26 13:12:00,62.8,38.0,30.41,NE,34,0.0,3.0,40,0.00,,,0.00,weatherlink.com 1.10,2013-04-26 17:12:00,
2013-04-26 13:27:00,63.5,40.0,30.40,North,355,2.0,3.0,42,0.00,,,0.00,weatherlink.com 1.10,2013-04-26 17:27:00,
2013-04-26 13:42:00,63.8,42.0,30.40,ENE,67,2.0,4.0,45,0.00,,,0.00,weatherlink.com 1.10,2013-04-26 17:42:00,
2013-04-26 13:57:00,63.6,40.0,30.40,NW,313,1.0,3.0,42,0.00,,,0.00,weatherlink.com 1.10,2013-04-26 17:57:00,
2013-04-26 14:12:00,63.3,40.0,30.39,ENE,69,0.0,3.0,42,0.00,,,0.00,weatherlink.com 1.10,2013-04-26 18:12:00,
2013-04-26 14:27:00,63.8,39.0,30.39,North,355,0.0,3.0,40,0.00,,,0.00,weatherlink.com 1.10,2013-04-26 18:27:00,
2013-04-26 14:42:00,63.8,38.0,30.40,NW,317,2.0,3.0,39,0.00,,,0.00,weatherlink.com 1.10,2013-04-26 18:42:00,
2013-04-26 14:57:00,63.8,38.0,30.39,NNE,17,1.0,4.0,39,0.00,,,0.00,weatherlink.com 1.10,2013-04-26 18:57:00,
2013-04-26 15:12:00,64.2,39.0,30.39,NW,320,2.0,3.0,40,0.00,,,0.00,weatherlink.com 1.10,2013-04-26 19:12:00,
2013-04-26 15:28:00,64.4,39.0,30.38,NW,317,0.0,3.0,39,0.00,,,0.00,weatherlink.com 1.10,2013-04-26 19:28:00,
2013-04-26 15:43:00,64.6,40.0,30.38,NNE,27,0.0,3.0,41,0.00,,,0.00,weatherlink.com 1.10,2013-04-26 19:43:00,
2013-04-26 15:58:00,64.4,38.0,30.38,NNW,335,0.0,3.0,38,0.00,,,0.00,weatherlink.com 1.10,2013-04-26 19:58:00,
2013-04-26 16:13:00,64.8,39.0,30.38,North,349,2.0,2.0,39,0.00,,,0.00,weatherlink.com 1.10,2013-04-26 20:13:00,
2013-04-26 16:28:00,64.1,37.0,30.38,East,80,0.0,3.0,37,0.00,,,0.00,weatherlink.com 1.10,2013-04-26 20:28:00,
2013-04-26 16:43:00,64.0,38.0,30.37,East,80,0.0,1.0,39,0.00,,,0.00,weatherlink.com 1.10,2013-04-26 20:43:00,
2013-04-26 16:58:00,63.4,39.0,30.37,East,80,0.0,2.0,40,0.00,,,0.00,weatherlink.com 1.10,2013-04-26 20:58:00,
2013-04-26 17:13:00,63.1,39.0,30.37,East,80,0.0,3.0,41,0.00,,,0.00,weatherlink.com 1.10,2013-04-26 21:13:00,
2013-04-26 17:28:00,62.8,37.0,30.37,East,80,0.0,2.0,39,0.00,,,0.00,weatherlink.com 1.10,2013-04-26 21:28:00,
2013-04-26 17:43:00,62.0,38.0,30.36,East,80,1.0,2.0,41,0.00,,,0.00,weatherlink.com 1.10,2013-04-26 21:43:00,
2013-04-26 17:58:00,61.6,39.0,30.36,East,80,2.0,2.0,43,0.00,,,0.00,weatherlink.com 1.10,2013-04-26 21:58:00,
2013-04-26 18:13:00,61.2,37.0,30.36,ENE,74,0.0,1.0,40,0.00,,,0.00,weatherlink.com 1.10,2013-04-26 22:13:00,
2013-04-26 18:28:00,60.7,38.0,30.36,ENE,74,0.0,1.0,44,0.00,,,0.00,weatherlink.com 1.10,2013-04-26 22:28:00,
2013-04-26 18:43:00,60.4,39.0,30.36,ENE,74,0.0,0.0,45,0.00,,,0.00,weatherlink.com 1.10,2013-04-26 22:43:00,
2013-04-26 18:58:00,60.0,38.0,30.37,ENE,74,0.0,0.0,45,0.00,,,0.00,weatherlink.com 1.10,2013-04-26 22:58:00,
2013-04-26 19:13:00,59.5,39.0,30.37,ENE,74,0.0,0.0,46,0.00,,,0.00,weatherlink.com 1.10,2013-04-26 23:13:00,
2013-04-26 19:28:00,58.8,38.0,30.38,ENE,74,0.0,0.0,47,0.00,,,0.00,weatherlink.com 1.10,2013-04-26 23:28:00,
2013-04-26 19:43:00,57.8,37.0,30.38,ENE,74,0.0,0.0,47,0.00,,,0.00,weatherlink.com 1.10,2013-04-26 23:43:00,
2013-04-26 20:13:00,55.5,41.0,30.38,ENE,74,0.0,0.0,59,0.00,,,0.00,weatherlink.com 1.10,2013-04-27 00:13:00,
2013-04-26 20:28:00,54.1,40.0,30.38,ENE,74,0.0,0.0,60,0.00,,,0.00,weatherlink.com 1.10,2013-04-27 00:28:00,
2013-04-26 20:43:00,53.0,41.0,30.39,ENE,74,0.0,0.0,64,0.00,,,0.00,weatherlink.com 1.10,2013-04-27 00:43:00,
2013-04-26 20:58:00,52.2,42.0,30.40,ENE,74,0.0,0.0,68,0.00,,,0.00,weatherlink.com 1.10,2013-04-27 00:58:00,
2013-04-26 21:13:00,51.3,42.0,30.40,ENE,74,0.0,0.0,70,0.00,,,0.00,weatherlink.com 1.10,2013-04-27 01:13:00,
2013-04-26 21:28:00,50.4,42.0,30.40,ENE,74,0.0,0.0,73,0.00,,,0.00,weatherlink.com 1.10,2013-04-27 01:28:00,
2013-04-26 21:43:00,49.6,41.0,30.41,ENE,74,0.0,0.0,73,0.00,,,0.00,weatherlink.com 1.10,2013-04-27 01:43:00,
2013-04-26 21:58:00,49.5,40.0,30.41,ENE,74,0.0,0.0,71,0.00,,,0.00,weatherlink.com 1.10,2013-04-27 01:58:00,
2013-04-26 22:13:00,49.3,41.0,30.41,ENE,74,0.0,0.0,74,0.00,,,0.00,weatherlink.com 1.10,2013-04-27 02:13:00,
2013-04-26 22:28:00,48.6,39.0,30.42,ENE,74,0.0,0.0,70,0.00,,,0.00,weatherlink.com 1.10,2013-04-27 02:28:00,
2013-04-26 22:43:00,48.3,40.0,30.42,ENE,74,0.0,0.0,72,0.00,,,0.00,weatherlink.com 1.10,2013-04-27 02:43:00,
2013-04-26 22:58:00,48.0,40.0,30.41,ENE,74,0.0,0.0,73,0.00,,,0.00,weatherlink.com 1.10,2013-04-27 02:58:00,
2013-04-26 23:13:00,47.6,39.0,30.41,ENE,74,0.0,0.0,72,0.00,,,0.00,weatherlink.com 1.10,2013-04-27 03:13:00,
2013-04-26 23:28:00,47.4,40.0,30.41,ENE,74,0.0,0.0,76,0.00,,,0.00,weatherlink.com 1.10,2013-04-27 03:28:00,
2013-04-26 23:43:00,47.6,42.0,30.41,ENE,74,0.0,0.0,82,0.00,,,0.00,weatherlink.com 1.10,2013-04-27 03:43:00,
2013-04-26 23:58:00,47.8,42.0,30.41,ENE,74,0.0,0.0,81,0.00,,,0.00,weatherlink.com 1.10,2013-04-27 03:58:00,